K0WU2AZO Weather Reports


Display with metric or nautical units.
time (UTC)temp
F
wind
direction
speed
MPH
gust
MPH
rain 1hr
in
rain 24hr
in
rain mn
in
humidity
%
barometer
mb
20260503012949 47 260 0.0 0.0 0.00 0.08 0.08 90 1010.1
20260503011449 47 260 0.0 0.0 0.00 0.08 0.08 89 1009.8
20260503005946 48 260 0.0 0.0 0.00 0.08 0.08 89 1009.6
20260503004445 48 260 0.0 0.0 0.00 0.08 0.08 89 1009.5
20260503002945 48 260 0.0 0.0 0.00 0.08 0.08 89 1009.5
20260503001449 48 260 0.0 0.0 0.00 0.08 0.08 88 1009.6
20260502235948 49 260 0.0 0.0 0.00 0.08 0.08 87 1009.5
20260502234448 49 260 0.0 0.0 0.00 0.08 0.08 87 1009.6
20260502232945 49 260 0.0 0.0 0.00 0.08 0.08 87 1009.4
20260502231446 49 260 0.0 0.0 0.01 0.08 0.08 87 1009.5
20260502225945 49 260 0.0 0.0 0.01 0.08 0.08 87 1009.3
20260502224448 49 260 0.0 1.0 0.01 0.08 0.08 87 1009.4
20260502222948 50 260 0.0 0.0 0.01 0.08 0.08 86 1009.5
20260502221447 51 260 0.0 0.0 0.00 0.07 0.07 85 1009.5
20260502215946 51 260 0.0 2.0 0.00 0.07 0.07 84 1009.5
20260502214445 52 253 0.0 4.0 0.00 0.07 0.07 81 1009.6
20260502212949 54 30 1.0 4.0 0.00 0.07 0.07 75 1009.5
20260502211450 54 256 1.0 3.0 0.00 0.07 0.07 73 1009.5
20260502205949 55 174 1.0 4.0 0.00 0.07 0.07 72 1009.2
20260502204448 57 241 2.0 4.0 0.00 0.07 0.07 69 1009.2
20260502202947 57 247 1.0 3.0 0.00 0.07 0.07 70 1009.2
20260502201445 55 265 1.0 4.0 0.00 0.07 0.07 71 1009.5
20260502195950 55 53 2.0 5.0 0.00 0.07 0.07 71 1009.4
20260502194449 55 264 1.0 4.0 0.00 0.07 0.07 70 1009.7
20260502192951 56 200 3.0 6.0 0.00 0.07 0.07 66 1010.0
20260502191450 55 119 3.0 5.0 0.00 0.07 0.07 69 1010.1
20260502185945 55 56 2.0 6.0 0.00 0.07 0.07 76 1010.2
20260502184448 54 133 3.0 5.0 0.00 0.07 0.07 76 1010.2
20260502182951 53 143 1.0 3.0 0.00 0.07 0.07 81 1010.3
20260502181449 52 153 1.0 3.0 0.00 0.07 0.07 81 1010.3
20260502162951 55 158 0.0 2.0 0.00 0.07 0.07 73 1010.8
20260502161448 54 229 0.0 1.0 0.00 0.07 0.07 77 1010.8
20260502151449 54 253 1.0 3.0 0.00 0.07 0.07 82 1011.4
20260502122950 49 229 0.0 1.0 0.00 0.01 0.01 86 1012.3
20260502121451 49 250 0.0 1.0 0.00 0.01 0.01 87 1011.7
20260502114450 47 250 0.0 0.0 0.01 0.01 0.01 89 1011.4
20260502112948 47 250 0.0 1.0 0.01 0.01 0.01 89 1011.5
20260502111450 47 229 0.0 1.0 0.01 0.01 0.01 89 1011.5
20260502105950 47 229 0.0 1.0 0.01 0.01 0.01 88 1011.3
20260502104449 47 229 0.0 1.0 0.00 0.00 0.00 88 1011.3
20260502102950 46 269 0.0 1.0 0.00 0.00 0.00 87 1011.0
20260502101450 46 269 0.0 1.0 0.00 0.00 0.00 88 1010.9
20260502091449 46 3 0.0 0.0 0.00 0.00 0.00 85 1010.5
20260502071449 47 245 0.0 1.0 0.00 0.00 0.00 82 1010.8
20260502065950 47 167 0.0 2.0 0.00 0.00 0.00 80 1010.9
20260502064452 47 225 0.0 1.0 0.00 0.01 0.00 78 1011.3
20260502062953 47 221 0.0 0.0 0.00 0.02 0.00 77 1011.0
20260502061450 46 221 0.0 1.0 0.00 0.03 0.00 78 1010.9
20260502055951 45 221 0.0 0.0 0.00 0.03 0.00 78 1010.9
20260502054446 45 221 0.0 0.0 0.00 0.03 0.00 76 1011.1
20260502052951 46 221 0.0 0.0 0.00 0.03 0.00 74 1011.0
20260502051451 45 221 0.0 0.0 0.00 0.03 0.00 76 1011.1
20260502045951 45 221 0.0 0.0 0.00 0.03 0.00 75 1010.9
20260502044452 45 221 0.0 0.0 0.00 0.03 0.00 73 1011.0
20260502042950 45 221 0.0 0.0 0.00 0.03 0.00 74 1011.3
20260502041450 45 221 0.0 0.0 0.00 0.03 0.00 74 1011.2
20260502035951 45 221 0.0 0.0 0.00 0.03 0.00 75 1011.1
20260502034452 45 221 0.0 0.0 0.00 0.03 0.03 74 1011.1
20260502032953 45 221 0.0 0.0 0.00 0.03 0.03 76 1011.2
20260502031451 45 221 0.0 0.0 0.00 0.03 0.03 78 1011.0
20260502025950 45 221 0.0 1.0 0.00 0.03 0.03 78 1010.9
20260502024451 44 293 0.0 0.0 0.00 0.03 0.03 77 1010.8
20260502022951 45 293 0.0 0.0 0.00 0.03 0.03 74 1010.8
20260502021452 46 293 0.0 0.0 0.00 0.03 0.03 72 1010.8
20260502015952 46 293 0.0 0.0 0.00 0.03 0.03 68 1010.8
20260502014454 47 293 0.0 0.0 0.00 0.03 0.03 66 1010.8